CW3643 Weather Reports


time (UTC)temp
C
wind
direction
speed
KPH
gust
KPH
rain 1hr
cm
rain 24hr
cm
rain mn
cm
humidity
%
barometer
mb
20260504200017 15 347 11.3 16.1 0.00 0.00 0.00 72 1017.7
20260504195513 15 295 6.4 17.7 0.00 0.00 0.00 72 1017.6
20260504195011 15 326 9.7 19.3 0.00 0.00 0.00 72 1017.5
20260504194020 15 348 12.9 19.3 0.00 0.00 0.00 71 1017.5
20260504193513 15 315 8.0 17.7 0.00 0.00 0.00 70 1017.5
20260504193011 15 302 11.3 22.5 0.00 0.00 0.00 70 1017.4
20260504192528 15 311 14.5 22.5 0.00 0.00 0.00 69 1017.3
20260504192024 15 346 14.5 24.1 0.00 0.00 0.00 69 1017.4
20260504191616 15 342 14.5 24.1 0.00 0.00 0.00 69 1017.3
20260504191055 15 336 16.1 22.5 0.00 0.00 0.00 69 1017.2
20260504190020 15 324 11.3 29.0 0.00 0.00 0.00 67 1017.2
20260504185515 15 328 19.3 30.6 0.00 0.00 0.00 66 1017.3
20260504185020 15 344 14.5 25.7 0.00 0.00 0.00 66 1017.2
20260504184520 16 327 19.3 25.7 0.00 0.00 0.00 65 1017.1
20260504184026 16 343 14.5 24.1 0.00 0.00 0.00 63 1017.0
20260504183034 16 323 19.3 33.8 0.00 0.00 0.00 63 1017.0
20260504182025 16 334 19.3 29.0 0.00 0.00 0.00 63 1016.9
20260504181530 16 351 14.5 25.7 0.00 0.00 0.00 64 1016.8
20260504181028 16 355 19.3 29.0 0.00 0.00 0.00 64 1016.9
20260504180533 16 353 19.3 30.6 0.00 0.00 0.00 64 1016.9
20260504175524 16 332 24.1 33.8 0.00 0.00 0.00 61 1016.9
20260504175029 16 330 17.7 33.8 0.00 0.00 0.00 60 1016.9
20260504174527 16 319 25.7 33.8 0.00 0.00 0.00 60 1016.9
20260504174032 16 321 24.1 37.0 0.00 0.00 0.00 58 1016.9
20260504173556 16 318 20.9 37.0 0.00 0.00 0.00 59 1016.9
20260504173010 16 313 24.1 37.0 0.00 0.00 0.00 59 1016.9
20260504172527 16 333 24.1 33.8 0.00 0.00 0.00 60 1016.9
20260504172020 16 341 19.3 30.6 0.00 0.00 0.00 62 1016.9
20260504171525 17 357 24.1 30.6 0.00 0.00 0.00 60 1016.9
20260504171021 16 8 19.3 30.6 0.00 0.00 0.00 60 1016.9
20260504170526 16 320 17.7 29.0 0.00 0.00 0.00 59 1016.8
20260504151027 17 190 20.9 33.8 0.00 0.00 0.00 53 1016.8
20260504150612 18 190 20.9 33.8 0.00 0.00 0.00 52 1016.9
20260504141022 18 190 19.3 33.8 0.00 0.00 0.00 54 1017.0
20260504140526 18 190 16.1 27.4 0.00 0.00 0.00 53 1016.9
20260504130536 18 190 9.7 22.5 0.00 0.00 0.00 52 1016.9
20260504100529 15 353 12.9 19.3 0.00 0.00 0.00 69 1017.5
20260504081027 14 318 6.4 9.7 0.00 0.00 0.00 79 1017.2
20260504080525 14 334 3.2 12.9 0.00 0.00 0.00 78 1017.1
20260504050512 12 303 1.6 8.0 0.00 0.00 0.00 80 1015.5
20260504050010 12 312 3.2 8.0 0.00 0.00 0.00 80 1015.5
20260504045529 12 274 6.4 9.7 0.00 0.00 0.00 80 1015.5
20260504045031 12 301 4.8 12.9 0.00 0.00 0.00 80 1015.5
20260504044549 12 334 8.0 14.5 0.00 0.00 0.00 80 1015.5
20260504044030 12 286 9.7 14.5 0.00 0.00 0.00 80 1015.5
20260504043528 12 312 8.0 14.5 0.00 0.00 0.00 80 1015.4
20260504043035 12 294 8.0 16.1 0.00 0.00 0.00 80 1015.4
20260504042523 12 291 8.0 17.7 0.00 0.00 0.00 80 1015.5
20260504042014 12 297 9.7 17.7 0.00 0.00 0.00 80 1015.4
20260504041546 12 325 9.7 17.7 0.00 0.00 0.00 80 1015.5
20260504041023 12 316 11.3 17.7 0.00 0.00 0.00 80 1015.5
20260504040528 12 334 8.0 17.7 0.00 0.00 0.00 80 1015.5
20260504040046 12 303 9.7 16.1 0.00 0.00 0.00 80 1015.5
20260504035521 12 287 11.3 19.3 0.00 0.00 0.00 80 1015.5
20260504035019 12 308 11.3 19.3 0.00 0.00 0.00 79 1015.4
20260504034033 12 281 9.7 17.7 0.00 0.00 0.00 79 1015.4
20260504033529 12 281 12.9 17.7 0.00 0.00 0.00 79 1015.5
20260504033047 12 298 9.7 14.5 0.00 0.00 0.00 79 1015.6
20260504032521 12 280 9.7 14.5 0.00 0.00 0.00 79 1015.6
20260504032020 12 309 8.0 14.5 0.00 0.00 0.00 79 1015.6
20260504031530 13 313 8.0 14.5 0.00 0.00 0.00 79 1015.6
20260504031027 13 321 4.8 12.9 0.00 0.00 0.00 79 1015.6
20260504030533 13 315 8.0 14.5 0.00 0.00 0.00 79 1015.6
20260504030058 13 343 9.7 14.5 0.00 0.00 0.00 80 1015.6
20260504025525 13 311 8.0 12.9 0.00 0.00 0.00 80 1015.6
20260504025022 13 302 6.4 16.1 0.00 0.00 0.00 80 1015.6
20260504024527 13 300 9.7 16.1 0.00 0.00 0.00 80 1015.6
20260504024045 13 289 9.7 16.1 0.00 0.00 0.00 80 1015.6
20260504023530 13 309 9.7 14.5 0.00 0.00 0.00 80 1015.6
20260504023028 13 301 8.0 16.1 0.00 0.00 0.00 80 1015.6
20260504022524 13 291 8.0 14.5 0.00 0.00 0.00 81 1015.6
20260504022042 13 324 6.4 12.9 0.00 0.00 0.00 81 1015.6
20260504021526 13 308 6.4 16.1 0.00 0.00 0.00 81 1015.6
20260504021043 13 302 9.7 16.1 0.00 0.00 0.00 80 1015.6
20260504020527 13 317 6.4 11.3 0.00 0.00 0.00 80 1015.7
20260504020025 13 304 4.8 9.7 0.00 0.00 0.00 80 1015.8
20260504015519 13 297 4.8 8.0 0.00 0.00 0.00 80 1015.7
20260504015023 13 299 3.2 11.3 0.00 0.00 0.00 80 1015.8
20260504014520 13 307 6.4 11.3 0.00 0.00 0.00 80 1015.9
20260504014018 13 303 8.0 14.5 0.00 0.00 0.00 80 1015.8
20260504013543 13 299 9.7 14.5 0.00 0.00 0.00 80 1015.8
20260504013020 13 305 9.7 16.1 0.00 0.00 0.00 80 1015.9
20260504012539 13 290 8.0 16.1 0.00 0.00 0.00 80 1015.9
20260504012043 13 296 6.4 11.3 0.00 0.00 0.00 79 1015.9
20260504011525 13 282 6.4 12.9 0.00 0.00 0.00 79 1016.0
20260504011023 13 303 6.4 11.3 0.00 0.00 0.00 79 1016.0
20260504010528 13 289 4.8 11.3 0.00 0.00 0.00 79 1016.0
20260504010046 13 296 4.8 8.0 0.00 0.00 0.00 79 1016.1
20260504005521 13 288 4.8 8.0 0.00 0.00 0.00 79 1016.1
20260504005035 13 292 6.4 8.0 0.00 0.00 0.00 79 1016.2
20260504004521 13 288 4.8 11.3 0.00 0.00 0.00 79 1016.2
20260504004018 13 283 6.4 11.3 0.00 0.00 0.00 79 1016.2
20260504003523 13 293 4.8 11.3 0.00 0.00 0.00 79 1016.2
20260504003011 13 288 6.4 12.9 0.00 0.00 0.00 79 1016.2
20260504002552 13 292 6.4 12.9 0.00 0.00 0.00 79 1016.2
20260504002035 13 301 8.0 12.9 0.00 0.00 0.00 79 1016.2
20260504001020 13 291 8.0 14.5 0.00 0.00 0.00 80 1016.2
20260504000520 13 295 8.0 14.5 0.00 0.00 0.00 80 1016.3
20260504000045 13 297 6.4 14.5 0.00 0.00 0.00 80 1016.4
20260503235520 13 278 8.0 14.5 0.00 0.00 0.00 80 1016.4
20260503235038 13 287 6.4 14.5 0.00 0.00 0.00 80 1016.4
20260503234542 13 296 9.7 16.1 0.00 0.00 0.00 79 1016.4
20260503234019 13 339 9.7 16.1 0.00 0.00 0.00 80 1016.3
20260503233544 13 322 12.9 17.7 0.00 0.00 0.00 80 1016.4
20260503233029 13 286 11.3 17.7 0.00 0.00 0.00 80 1016.4
20260503232027 13 322 11.3 17.7 0.00 0.00 0.00 80 1016.4
20260503231533 13 302 8.0 16.1 0.00 0.00 0.00 80 1016.4
20260503231011 13 301 8.0 16.1 0.00 0.00 0.00 80 1016.4
20260503230517 13 303 6.4 14.5 0.00 0.00 0.00 81 1016.3
20260503230024 13 334 9.7 16.1 0.00 0.00 0.00 81 1016.3
20260503225509 13 311 9.7 16.1 0.00 0.00 0.00 81 1016.3
20260503224522 13 298 8.0 17.7 0.00 0.00 0.00 81 1016.3
20260503224017 13 328 11.3 17.7 0.00 0.00 0.00 81 1016.3
20260503223520 13 329 9.7 16.1 0.00 0.00 0.00 81 1016.3
20260503223017 13 320 8.0 16.1 0.00 0.00 0.00 81 1016.3
20260503222513 13 327 8.0 12.9 0.00 0.00 0.00 81 1016.3
20260503222012 13 321 6.4 14.5 0.00 0.00 0.00 80 1016.3
20260503221517 13 311 8.0 14.5 0.00 0.00 0.00 80 1016.3
20260503221033 13 322 8.0 12.9 0.00 0.00 0.00 80 1016.3
20260503220516 13 349 8.0 12.9 0.00 0.00 0.00 80 1016.3
20260503220033 13 334 8.0 12.9 0.00 0.00 0.00 80 1016.3
20260503215530 13 313 6.4 11.3 0.00 0.00 0.00 80 1016.3
20260503215033 13 291 6.4 11.3 0.00 0.00 0.00 80 1016.2
20260503214013 13 345 6.4 11.3 0.00 0.00 0.00 80 1016.2
20260503213521 13 328 4.8 12.9 0.00 0.00 0.00 80 1016.1
20260503213039 13 332 8.0 12.9 0.00 0.00 0.00 79 1016.1
20260503212513 13 297 8.0 12.9 0.00 0.00 0.00 79 1016.1
20260503212011 13 320 6.4 12.9 0.00 0.00 0.00 79 1016.0
20260503211518 14 318 6.4 12.9 0.00 0.00 0.00 79 1016.0
20260503211014 14 308 8.0 11.3 0.00 0.00 0.00 79 1015.9
20260503210513 14 341 6.4 11.3 0.00 0.00 0.00 79 1015.9
20260503210021 14 289 6.4 12.9 0.00 0.00 0.00 79 1015.8
20260503205537 14 310 6.4 14.5 0.00 0.00 0.00 78 1015.8
20260503205014 14 325 9.7 14.5 0.00 0.00 0.00 78 1015.7
20260503204512 14 330 9.7 14.5 0.00 0.00 0.00 78 1015.6
20260503204038 14 354 11.3 14.5 0.00 0.00 0.00 78 1015.5
20260503203514 14 324 9.7 17.7 0.00 0.00 0.00 77 1015.4
20260503203019 14 342 11.3 19.3 0.00 0.00 0.00 77 1015.4
20260503202024 15 344 9.7 19.3 0.00 0.00 0.00 77 1015.3
20260503201528 15 358 12.9 19.3 0.00 0.00 0.00 77 1015.1
20260503201032 15 312 12.9 20.9 0.00 0.00 0.00 76 1015.1
20260503200509 15 316 11.3 19.3 0.00 0.00 0.00 77 1015.0